SCP
0 0 0 0 0 0 -0 0 0 0 0 0 0 0 0 0 0 0 0 -0 -0 0 0 0 0 -0 -0 -0 -0 -0 -0 -0 -0 -0 -0 -0 -0 -0 -0 -0 -0 -0 -0 -0 -0 -0 -0 -0 -0
0 0 0 0 0 -0 -0 0 0 0 0 0 0 0 0 0 0 0 0 0 -0 0 0 0 0 -0 -0 -0 -0 -0 -0 -0 -0 -0 -0 -0 -0 -0 -0 -0 -0 -0 -0 -0 -0 -0 -0 -0 -0
0 0 0 0 0 -0 -0 -0 0 0 0 0 0 0 0 0 0 0 0 -0 -0 0 0 0 -0 -0 -0 -0 -0 -0 -0 -0 -0 -0 -0 -0 -0 -0 -0 -0 -0 -0 -0 -0 -0 -0 -0 -0 -0
0 0 0 0 0 0 0 0 0 0 0 -0 0 -0 0 0 -0 0 -0 -0 -0 0 0 0 -0 -0 -0 -0 -0 -0 -0 -0 -0 -0 -0 -0 -0 -0 -0 -0 -0 -0 -0 -0 -0 -0 -0 -0 -0
0 0 0 0 0 0 -0 -0 0 -0 -0 -0 -0 0 0 -0 0 -0 -0 -0 -0 0 0 0 -0 -0 -0 -0 -0 -0 -0 -0 -0 -0 -0 -0 -0 -0 -0 -0 -0 -0 -0 -0 -0 -0 -0 -0 -0
0 0 0 0 0 -0 -0 0 -0 -0 -0 -0 -0 -0 -0 -0 -0 -0 -0 -0 -0 -0 0 0 -0 -0 -0 -0 -0 -0 -0 -0 -0 -0 -0 -0 -0 -0 -0 -0 -0 -0 -0 -0 -0 -0 -0 -0 -0
0 0 0 0 0 0 0 0 -0 -0 -0 0 -0 -0 -0 -0 -0 -0 -0 -0 -0 -0 0 0 0 -0 -0 -0 -0 -0 -0 -0 -0 -0 -0 -0 -0 -0 -0 -0 -0 -0 -0 -0 -0 -0 -0 -0 -0
0 0 0 0 0 0 -0 -0 -0 -0 -0 0 -0 -0 -0 -0 -0 -0 -0 -0 -0 -0 -0 0 0 0 0 0 -0 -0 -0 -0 -0 -0 -0 -0 -0 -0 -0 -0 -0 -0 -0 -0 -0 -0 -0 -0 -0
0 0 0 0 0 0 -0 0 0 0 0 0 0 -0 -0 -0 -0 -0 -0 0 -0 0 0 0 -0 0 0 0 0 -0 -0 -0 -0 -0 -0 0 0 0 0 -0 -0 -0 -0 -0 -0 -0 -0 -0 -0
0 0 0 0 0 0 0 0 0 0 0 0 0 0 0 -0 -0 -0 -0 -0 0 0 0 0 -0 -0 0 0 0 0 0 0 0 0 0 0 0 0 0 0 -0 -0 -0 -0 -0 -0 -0 0 0
0 0 0 0 0 0 0 0 0 0 0 0 0 0 0 -0 -0 -0 -0 -0 -0 -0 0 0 0 0 0 0 0 0 0 0 0 0 0 0 0 0 0 0 0 0 0 0 0 0 0 0 0
0 0 0 0 0 0 0 0 0 0 0 0 0 -0 -0 -0 -0 -0 -0 -0 -0 0 0 0 0 0 0 0 0 0 0 0 0 0 0 0 0 0 0 0 0 0 0 0 0 0 0 0 0
0 0 0 0 0 0 0 0 0 0 0 0 0 0 -0 -0 -0 -0 -0 0 0 0 0 0 0 0 0 0 0 0 0 0 0 0 0 0 0 0 0 0 0 0 0 0 0 0 0 0 0
0 0 0 0 0 0 0 0 0 0 0 -0 0 0 -0 -0 -0 0 0 0 -0 -0 0 0 0 0 0 0 0 0 0 0 0 0 0 0 0 0 0 0 0 0 0 0 0 0 0 0 0
0 0 0 0 0 0 0 0 0 0 0 0 0 0 0 -0 0 -0 -0 -0 -0 -0 0 0 0 0 0 0 -0 0 0 0 0 0 0 0 0 0 0 0 0 0 0 0 0 0 0 0 0
0 0 0 0 0 0 0 0 0 0 0 0 0 0 0 0 -0 -0 0 -0 0 -0 -0 0 0 0 0 0 0 0 0 0 0 0 0 0 0 0 0 0 0 0 0 0 0 0 0 0 0
0 0 0 0 0 0 0 0 0 0 0 0 0 0 0 0 0 0 0 0 0 -0 -0 0 0 0 0 0 0 0 0 0 0 0 0 0 0 0 0 0 0 0 0 0 0 0 0 0 0
0 0 0 0 0 0 0 0 0 0 0 0 0 0 0 0 0 0 0 0 0 0 0 0 0 0 0 0 0 0 0 0 0 0 0 0 0 0 0 0 0 0 0 0 0 0 0 0 0
0 0 0 0 0 0 0 0 0 0 0 0 0 0 0 0 0 0 0 0 0 0 0 0 0 0 0 0 0 0 0 0 0 0 0 0 0 0 0 0 0 0 0 0 0 0 0 0 0
0 0 0 0 0 0 0 0 0 0 0 0 0 0 0 0 0 0 0 0 0 0 0 0 0 0 0 0 0 0 0 0 0 0 0 0 0 0 0 0 0 0 0 0 0 0 0 0 0
0 0 0 0 0 0 0 -0 -0 0 0 0 0 0 0 0 0 0 0 0 0 0 0 0 0 0 0 0 0 0 0 0 0 0 0 0 0 0 0 0 0 0 0 0 0 0 0 0 0
0 0 0 0 0 0 0 -0 -0 -0 0 0 0 0 0 0 0 0 0 0 0 0 0 0 0 0 0 0 0 0 0 0 0 0 0 0 0 0 0 0 0 0 0 0 0 0 0 0 0
0 0 0 0 0 0 0 0 -0 -0 0 0 0 0 0 0 0 0 0 0 0 0 0 0 0 0 0 0 0 0 0 0 0 0 0 0 0 0 0 0 0 0 0 0 0 0 0 0 0
0 0 0 0 0 0 0 0 0 -0 -0 0 0 0 0 0 0 0 0 0 0 0 0 0 0 0 0 0 0 0 0 0 0 0 0 0 0 0 0 0 0 0 0 0 0 0 0 0 0
0 0 0 0 0 0 0 0 0 0 0 0 0 0 0 0 0 0 0 0 0 0 0 0 0 0 0 0 0 0 0 0 0 0 0 0 0 0 0 0 0 0 0 0 0 0 0 0 0
0 0 0 0 0 0 0 0 0 0 0 0 0 0 0 0 0 -0 -0 0 0 0 0 0 0 0 0 0 0 0 0 0 0 0 0 0 0 0 0 0 0 0 0 0 0 0 0 0 0
0 0 0 0 0 0 0 0 0 0 0 0 0 -0 -0 0 0 0 0 0 0 0 0 0 0 0 0 0 0 0 0 0 0 0 0 0 0 0 0 0 0 0 0 0 0 0 0 0 0
0 0 0 0 0 0 0 0 0 0 0 0 0 0 0 0 0 0 0 0 0 0 0 0 0 0 0 0 0 0 0 0 0 0 0 0 0 0 0 0 0 0 0 0 0 0 0 0 0
0 0 0 0 0 0 0 0 0 0 0 0 0 0 0 0 0 0 0 0 0 0 0 0 0 0 0 0 0 0 0 0 0 0 0 0 0 0 0 0 0 0 0 0 0 0 0 0 0
0 0 0 0 0 0 0 0 0 0 0 0 0 0 0 0 0 0 0 0 0 0 0 0 0 0 0 0 0 0 0 0 0 0 0 0 0 0 0 0 0 0 0 0 0 0 0 0 0
Wind_Speed_500mb
11 9 3 2 7 10 2 1 5 4 6 8 16 20 18 9 4 6 27 35 36 38 38 34 31 28 25 22 21 22 23 23 23 25 25 25 25 26 21 21 21 25 38 40 42 39 40 39 33
10 3 0 5 9 7 7 4 9 4 15 25 26 24 8 4 10 22 44 28 25 38 39 37 33 29 26 23 22 22 22 22 23 24 24 25 27 29 27 20 19 27 37 39 38 37 36 34 31
7 3 1 8 7 9 9 6 11 10 15 10 10 14 10 13 16 42 33 37 32 37 39 38 34 29 26 23 21 21 20 21 21 22 23 26 27 33 30 23 16 25 35 37 36 36 34 34 34
5 3 7 8 1 2 15 14 15 15 10 10 21 14 10 10 34 34 40 43 34 38 40 38 34 31 27 26 22 20 19 19 19 21 22 25 32 31 31 25 19 19 30 33 33 32 32 33 32
6 5 7 6 6 3 4 28 26 8 14 13 13 9 12 31 29 31 42 44 37 42 41 39 35 33 29 27 23 19 18 16 16 18 21 27 28 30 33 25 16 15 24 28 27 27 26 29 30
6 5 9 2 6 4 6 30 23 12 14 15 13 18 12 26 34 34 44 39 32 40 42 39 37 33 30 28 24 20 19 17 16 16 18 22 25 25 25 20 11 11 22 25 24 24 21 23 23
11 8 7 7 3 1 8 23 23 17 19 14 24 11 10 35 34 41 43 35 31 37 39 41 39 36 32 29 26 22 19 17 15 14 16 18 19 17 15 12 10 19 22 22 22 19 16 18 23
8 10 6 3 5 6 10 12 18 29 15 18 18 12 13 43 39 49 43 33 33 28 33 37 41 41 38 34 29 24 21 18 16 14 14 15 15 14 13 15 19 21 21 20 21 21 19 18 20
6 8 4 3 3 6 14 5 9 12 21 14 18 15 9 39 49 60 54 44 43 40 38 39 44 45 41 37 34 30 26 23 21 18 17 16 16 17 19 19 22 22 21 22 21 20 18 16 15
8 7 12 3 2 6 7 4 17 11 15 8 16 15 22 40 58 70 67 62 58 52 48 41 44 48 46 42 39 36 33 29 24 20 17 16 17 19 19 21 22 23 23 24 22 21 17 13 11
9 10 10 0 5 6 5 3 9 15 7 23 30 29 34 43 51 66 66 64 66 58 55 48 46 47 49 48 46 43 38 34 31 23 19 19 20 19 20 20 23 24 24 22 20 19 17 12 10
9 6 6 11 4 4 5 3 6 20 17 10 11 28 35 44 49 56 65 68 68 66 57 55 47 50 49 49 50 47 45 42 37 29 26 22 23 23 23 20 22 22 23 22 19 16 14 12 14
8 4 7 9 6 5 5 9 9 29 26 27 22 22 38 45 47 50 53 60 65 69 65 59 58 55 53 51 50 46 47 47 45 40 36 31 30 27 28 24 20 22 24 22 19 16 14 14 16
12 7 4 8 8 6 5 3 2 16 17 39 34 27 40 47 48 52 58 59 64 65 66 63 63 61 58 55 53 53 52 47 51 50 43 40 40 35 36 35 27 25 28 26 22 17 16 17 18
9 4 9 11 12 8 8 9 17 36 19 19 25 37 40 46 52 59 58 62 63 64 64 66 62 65 64 62 62 62 61 58 56 56 55 48 47 44 44 44 36 36 35 31 29 27 26 25 25
8 9 4 5 18 8 10 15 12 6 12 22 33 33 36 46 51 53 57 60 63 66 68 66 64 66 70 68 65 71 70 65 58 61 62 58 53 50 51 51 44 45 42 38 36 34 34 33 30
9 7 6 9 16 7 9 11 14 10 5 14 20 27 36 50 54 59 61 59 58 64 68 69 70 69 69 69 71 69 72 69 63 63 70 64 63 58 56 54 51 50 48 44 43 43 42 39 38
11 6 7 8 11 4 8 17 21 29 37 42 46 50 53 56 63 56 55 58 58 59 66 69 73 75 75 74 74 75 73 73 68 69 73 67 71 67 64 64 63 61 61 55 50 51 48 44 43
10 7 4 6 9 11 16 15 22 44 43 58 65 68 74 74 65 59 58 56 63 67 66 69 76 81 85 89 87 83 81 78 75 76 74 74 73 76 75 73 71 71 67 68 60 57 56 55 53
8 7 9 9 1 8 10 23 21 23 44 64 67 78 74 63 54 54 59 61 61 65 72 72 75 83 87 92 90 89 84 84 80 84 80 78 78 76 78 79 77 80 77 74 73 69 64 66 62
10 12 9 12 4 6 7 18 11 11 27 45 45 51 56 59 51 42 41 52 60 68 71 78 77 77 83 91 96 96 94 91 90 89 91 87 84 80 85 81 80 88 84 87 81 80 71 78 70
11 11 9 6 6 8 4 13 9 11 15 16 62 71 70 67 55 48 40 43 50 59 60 69 78 79 80 91 97 100 100 99 100 96 94 91 87 83 83 83 83 78 85 86 88 84 82 84 76
13 8 8 4 5 3 3 1 16 7 10 26 34 53 48 41 31 29 28 30 34 41 52 59 78 82 79 80 89 95 100 99 97 94 93 95 90 89 82 85 92 92 90 86 88 94 97 82 89
16 12 15 10 6 8 16 16 10 9 13 7 10 10 9 8 11 13 15 22 28 27 33 46 67 80 75 73 83 90 93 97 95 94 94 94 93 94 91 91 89 97 91 97 96 95 96 94 103
9 14 3 5 3 13 2 4 16 12 17 12 12 15 17 21 15 14 15 17 22 21 21 29 50 73 73 72 75 77 84 88 87 87 86 88 89 91 91 97 96 96 101 98 101 98 100 114 106
15 17 12 16 9 9 5 12 10 9 21 29 29 29 38 25 17 16 14 11 8 14 22 30 45 55 56 59 63 65 72 77 78 78 77 74 78 80 80 85 98 99 98 99 105 99 99 108 101
12 12 11 11 4 6 9 11 19 13 20 37 48 49 34 20 14 13 11 18 21 24 26 29 34 38 44 48 52 54 57 62 64 66 67 68 69 71 73 76 80 91 98 101 101 109 104 100 95
12 16 8 4 5 8 9 8 12 13 11 10 16 46 37 18 13 8 10 15 21 20 20 20 20 24 29 35 41 46 48 52 55 59 64 65 64 66 69 72 75 80 86 99 101 105 104 107 93
7 7 5 10 10 11 3 10 12 10 6 12 19 36 38 36 29 23 19 13 12 11 10 9 8 10 14 20 24 31 34 41 48 51 55 58 61 63 65 65 68 72 77 86 94 100 102 105 97
6 15 14 11 9 8 6 11 7 18 17 37 36 41 41 42 40 33 29 26 24 19 14 16 18 19 17 17 16 16 22 29 39 46 49 50 55 57 60 63 66 68 70 72 73 89 94 95 101
Wind_Direction_500mb
196 235 285 257 62 65 327 213 164 134 68 104 86 104 123 92 135 188 134 154 167 169 168 169 164 154 146 135 123 111 107 103 100 104 113 118 117 115 108 89 71 97 93 98 100 102 99 97 98
202 224 232 101 85 79 274 269 126 228 134 116 97 113 78 110 125 148 150 164 177 172 169 170 165 158 149 142 129 119 111 104 102 103 111 117 117 122 119 107 86 95 98 102 105 110 108 101 90
192 155 38 94 108 162 176 183 156 135 132 129 104 94 116 140 161 158 160 166 181 179 172 171 168 160 154 144 135 127 117 106 101 102 109 116 118 121 119 119 99 92 103 107 112 115 108 96 90
179 123 67 84 184 232 161 173 164 138 110 108 128 81 105 158 162 173 161 171 184 180 176 175 173 169 161 153 149 141 129 120 114 110 111 117 121 123 129 139 128 100 109 114 119 122 114 109 103
150 86 56 60 310 12 50 161 164 138 140 139 142 165 130 145 162 172 171 178 183 179 179 179 178 175 169 164 160 153 144 133 120 112 116 130 130 134 146 158 154 115 118 120 129 128 128 121 113
97 77 61 136 288 136 185 169 154 128 148 151 111 132 153 177 178 180 179 184 182 182 181 183 182 181 178 175 172 168 160 150 140 131 129 138 140 150 165 178 177 138 130 132 139 140 134 122 115
108 84 176 178 203 246 186 173 141 158 158 182 152 118 164 168 174 180 186 186 183 182 182 186 187 187 186 185 183 180 174 166 156 144 139 146 157 165 166 168 160 140 133 140 140 144 132 119 117
112 96 135 222 150 252 185 159 146 159 190 163 172 171 179 186 177 179 180 180 184 184 195 196 194 193 193 191 192 191 188 183 176 167 161 160 163 167 171 169 150 144 146 145 150 144 139 127 120
121 65 162 212 148 194 177 143 127 129 149 170 183 169 196 178 172 177 178 181 187 195 202 202 203 201 200 198 195 195 195 193 190 184 179 175 172 168 164 162 152 151 153 153 151 143 136 132 123
100 111 204 255 163 168 187 197 150 149 154 179 183 192 171 175 175 180 187 188 192 195 199 205 210 207 204 203 203 202 202 202 199 192 188 181 175 167 165 159 156 157 161 160 154 148 143 139 135
144 172 195 39 94 108 170 153 177 153 210 210 200 196 185 183 188 191 197 199 200 201 201 211 208 214 213 208 208 208 207 205 200 201 191 184 177 172 167 166 164 169 175 166 159 155 153 154 152
137 220 193 168 168 151 185 251 229 212 215 216 216 231 208 201 201 203 205 206 205 208 209 210 211 212 221 218 215 213 212 207 204 211 199 194 183 178 171 172 174 181 175 173 167 168 165 160 157
163 186 173 182 203 238 212 248 256 257 233 221 254 214 219 223 220 220 218 213 210 212 218 215 215 213 215 219 221 221 224 218 207 213 211 208 199 191 183 179 184 187 187 188 186 188 183 172 166
177 175 203 207 219 214 198 242 219 271 251 233 236 228 232 235 235 228 221 218 216 219 223 223 221 217 215 218 221 218 224 227 215 214 217 215 210 204 196 195 198 203 201 204 204 203 201 190 184
140 134 332 218 210 209 193 290 228 257 271 249 236 237 236 240 236 234 235 228 224 224 225 226 225 222 219 219 221 220 224 230 225 218 218 218 215 212 211 207 207 210 211 214 215 210 208 203 192
97 53 127 302 156 191 151 264 255 261 236 253 246 250 240 241 241 244 241 239 235 230 228 227 227 225 223 224 223 226 227 228 231 222 218 219 218 217 217 221 218 215 217 220 220 218 212 205 205
4 204 185 311 200 139 167 254 259 198 188 290 275 259 256 252 244 244 244 244 245 239 234 230 229 230 228 226 227 230 232 232 231 226 221 222 220 221 222 227 226 224 225 228 225 220 218 218 206
199 202 230 214 204 177 186 255 274 259 282 285 282 274 267 259 252 255 254 248 244 243 239 236 233 233 232 229 230 232 234 234 234 228 224 224 224 224 225 225 230 227 227 227 228 224 220 219 213
153 170 204 240 216 160 228 251 263 274 283 282 278 278 277 270 266 257 251 251 248 241 238 236 233 233 231 228 228 229 231 232 234 235 231 226 227 227 228 229 232 233 233 231 226 222 221 214 216
219 211 235 295 349 168 275 264 250 253 260 263 271 280 279 280 279 262 251 245 242 242 241 236 237 234 234 233 235 234 234 231 234 235 239 231 229 230 231 233 235 232 236 230 230 226 223 219 217
195 179 201 217 359 297 322 286 251 279 255 270 266 265 275 277 284 285 263 248 246 245 242 240 237 239 237 235 232 234 233 235 233 235 238 236 231 234 233 236 234 236 234 238 232 231 230 228 218
207 205 184 178 86 248 59 286 278 242 268 287 274 266 269 280 286 282 270 258 250 245 242 242 242 240 238 234 235 235 239 238 241 239 237 237 234 237 237 239 236 243 244 242 240 243 235 242 232
221 152 161 108 117 16 287 242 279 259 253 256 274 280 283 281 279 279 267 257 258 253 245 245 241 241 240 241 241 242 241 244 249 248 243 240 241 241 242 244 245 242 240 244 244 244 235 240 236
142 77 43 52 63 283 201 183 282 240 216 263 266 313 322 317 307 323 300 263 252 255 242 241 240 241 243 244 243 245 246 247 247 248 248 246 244 244 246 246 247 243 244 243 246 249 249 244 245
106 90 349 337 351 234 37 157 242 263 258 251 285 303 310 299 296 303 303 284 262 260 258 241 234 238 240 242 247 252 251 252 254 256 257 256 251 247 248 247 248 246 247 249 249 247 247 249 245
183 156 166 195 203 259 308 240 244 275 299 276 273 288 308 296 270 274 270 276 265 269 262 247 237 241 247 251 255 256 256 258 260 261 261 261 259 258 256 253 248 250 252 252 249 250 246 250 253
192 207 171 94 34 50 226 293 305 304 291 292 308 317 320 313 284 254 250 276 279 274 261 255 251 249 248 253 257 258 258 259 260 263 263 262 261 260 259 255 253 251 251 252 252 250 254 244 261
161 162 84 9 151 254 259 242 217 270 341 333 4 22 23 21 20 338 291 279 280 272 270 268 261 255 251 251 255 258 261 261 263 264 263 264 264 261 259 257 254 252 250 247 249 252 250 249 252
134 183 158 134 159 194 251 257 219 159 148 61 42 38 33 33 24 6 354 341 345 345 350 346 332 303 283 271 264 262 264 266 266 268 270 270 269 266 263 259 257 256 255 249 245 247 250 251 255
186 186 156 157 228 235 164 248 160 132 105 77 68 64 48 37 30 25 24 17 6 5 7 24 19 4 339 308 288 283 277 272 271 274 277 277 274 271 267 263 260 258 257 252 248 245 247 250 254
Wind_Speed_850mb
11 9 3 2 7 10 2 1 5 4 6 8 16 20 18 9 4 6 27 35 36 38 38 34 31 28 25 22 21 22 23 23 23 25 25 25 25 26 21 21 21 25 38 40 42 39 40 39 33
10 3 0 5 9 7 7 4 9 4 15 25 26 24 8 4 10 22 44 28 25 38 39 37 33 29 26 23 22 22 22 22 23 24 24 25 27 29 27 20 19 27 37 39 38 37 36 34 31
7 3 1 8 7 9 9 6 11 10 15 10 10 14 10 13 16 42 33 37 32 37 39 38 34 29 26 23 21 21 20 21 21 22 23 26 27 33 30 23 16 25 35 37 36 36 34 34 34
5 3 7 8 1 2 15 14 15 15 10 10 21 14 10 10 34 34 40 43 34 38 40 38 34 31 27 26 22 20 19 19 19 21 22 25 32 31 31 25 19 19 30 33 33 32 32 33 32
6 5 7 6 6 3 4 28 26 8 14 13 13 9 12 31 29 31 42 44 37 42 41 39 35 33 29 27 23 19 18 16 16 18 21 27 28 30 33 25 16 15 24 28 27 27 26 29 30
6 5 9 2 6 4 6 30 23 12 14 15 13 18 12 26 34 34 44 39 32 40 42 39 37 33 30 28 24 20 19 17 16 16 18 22 25 25 25 20 11 11 22 25 24 24 21 23 23
11 8 7 7 3 1 8 23 23 17 19 14 24 11 10 35 34 41 43 35 31 37 39 41 39 36 32 29 26 22 19 17 15 14 16 18 19 17 15 12 10 19 22 22 22 19 16 18 23
8 10 6 3 5 6 10 12 18 29 15 18 18 12 13 43 39 49 43 33 33 28 33 37 41 41 38 34 29 24 21 18 16 14 14 15 15 14 13 15 19 21 21 20 21 21 19 18 20
6 8 4 3 3 6 14 5 9 12 21 14 18 15 9 39 49 60 54 44 43 40 38 39 44 45 41 37 34 30 26 23 21 18 17 16 16 17 19 19 22 22 21 22 21 20 18 16 15
8 7 12 3 2 6 7 4 17 11 15 8 16 15 22 40 58 70 67 62 58 52 48 41 44 48 46 42 39 36 33 29 24 20 17 16 17 19 19 21 22 23 23 24 22 21 17 13 11
9 10 10 0 5 6 5 3 9 15 7 23 30 29 34 43 51 66 66 64 66 58 55 48 46 47 49 48 46 43 38 34 31 23 19 19 20 19 20 20 23 24 24 22 20 19 17 12 10
9 6 6 11 4 4 5 3 6 20 17 10 11 28 35 44 49 56 65 68 68 66 57 55 47 50 49 49 50 47 45 42 37 29 26 22 23 23 23 20 22 22 23 22 19 16 14 12 14
8 4 7 9 6 5 5 9 9 29 26 27 22 22 38 45 47 50 53 60 65 69 65 59 58 55 53 51 50 46 47 47 45 40 36 31 30 27 28 24 20 22 24 22 19 16 14 14 16
12 7 4 8 8 6 5 3 2 16 17 39 34 27 40 47 48 52 58 59 64 65 66 63 63 61 58 55 53 53 52 47 51 50 43 40 40 35 36 35 27 25 28 26 22 17 16 17 18
9 4 9 11 12 8 8 9 17 36 19 19 25 37 40 46 52 59 58 62 63 64 64 66 62 65 64 62 62 62 61 58 56 56 55 48 47 44 44 44 36 36 35 31 29 27 26 25 25
8 9 4 5 18 8 10 15 12 6 12 22 33 33 36 46 51 53 57 60 63 66 68 66 64 66 70 68 65 71 70 65 58 61 62 58 53 50 51 51 44 45 42 38 36 34 34 33 30
9 7 6 9 16 7 9 11 14 10 5 14 20 27 36 50 54 59 61 59 58 64 68 69 70 69 69 69 71 69 72 69 63 63 70 64 63 58 56 54 51 50 48 44 43 43 42 39 38
11 6 7 8 11 4 8 17 21 29 37 42 46 50 53 56 63 56 55 58 58 59 66 69 73 75 75 74 74 75 73 73 68 69 73 67 71 67 64 64 63 61 61 55 50 51 48 44 43
10 7 4 6 9 11 16 15 22 44 43 58 65 68 74 74 65 59 58 56 63 67 66 69 76 81 85 89 87 83 81 78 75 76 74 74 73 76 75 73 71 71 67 68 60 57 56 55 53
8 7 9 9 1 8 10 23 21 23 44 64 67 78 74 63 54 54 59 61 61 65 72 72 75 83 87 92 90 89 84 84 80 84 80 78 78 76 78 79 77 80 77 74 73 69 64 66 62
10 12 9 12 4 6 7 18 11 11 27 45 45 51 56 59 51 42 41 52 60 68 71 78 77 77 83 91 96 96 94 91 90 89 91 87 84 80 85 81 80 88 84 87 81 80 71 78 70
11 11 9 6 6 8 4 13 9 11 15 16 62 71 70 67 55 48 40 43 50 59 60 69 78 79 80 91 97 100 100 99 100 96 94 91 87 83 83 83 83 78 85 86 88 84 82 84 76
13 8 8 4 5 3 3 1 16 7 10 26 34 53 48 41 31 29 28 30 34 41 52 59 78 82 79 80 89 95 100 99 97 94 93 95 90 89 82 85 92 92 90 86 88 94 97 82 89
16 12 15 10 6 8 16 16 10 9 13 7 10 10 9 8 11 13 15 22 28 27 33 46 67 80 75 73 83 90 93 97 95 94 94 94 93 94 91 91 89 97 91 97 96 95 96 94 103
9 14 3 5 3 13 2 4 16 12 17 12 12 15 17 21 15 14 15 17 22 21 21 29 50 73 73 72 75 77 84 88 87 87 86 88 89 91 91 97 96 96 101 98 101 98 100 114 106
15 17 12 16 9 9 5 12 10 9 21 29 29 29 38 25 17 16 14 11 8 14 22 30 45 55 56 59 63 65 72 77 78 78 77 74 78 80 80 85 98 99 98 99 105 99 99 108 101
12 12 11 11 4 6 9 11 19 13 20 37 48 49 34 20 14 13 11 18 21 24 26 29 34 38 44 48 52 54 57 62 64 66 67 68 69 71 73 76 80 91 98 101 101 109 104 100 95
12 16 8 4 5 8 9 8 12 13 11 10 16 46 37 18 13 8 10 15 21 20 20 20 20 24 29 35 41 46 48 52 55 59 64 65 64 66 69 72 75 80 86 99 101 105 104 107 93
7 7 5 10 10 11 3 10 12 10 6 12 19 36 38 36 29 23 19 13 12 11 10 9 8 10 14 20 24 31 34 41 48 51 55 58 61 63 65 65 68 72 77 86 94 100 102 105 97
6 15 14 11 9 8 6 11 7 18 17 37 36 41 41 42 40 33 29 26 24 19 14 16 18 19 17 17 16 16 22 29 39 46 49 50 55 57 60 63 66 68 70 72 73 89 94 95 101
Wind_Direction_850mb
196 235 285 257 62 65 327 213 164 134 68 104 86 104 123 92 135 188 134 154 167 169 168 169 164 154 146 135 123 111 107 103 100 104 113 118 117 115 108 89 71 97 93 98 100 102 99 97 98
202 224 232 101 85 79 274 269 126 228 134 116 97 113 78 110 125 148 150 164 177 172 169 170 165 158 149 142 129 119 111 104 102 103 111 117 117 122 119 107 86 95 98 102 105 110 108 101 90
192 155 38 94 108 162 176 183 156 135 132 129 104 94 116 140 161 158 160 166 181 179 172 171 168 160 154 144 135 127 117 106 101 102 109 116 118 121 119 119 99 92 103 107 112 115 108 96 90
179 123 67 84 184 232 161 173 164 138 110 108 128 81 105 158 162 173 161 171 184 180 176 175 173 169 161 153 149 141 129 120 114 110 111 117 121 123 129 139 128 100 109 114 119 122 114 109 103
150 86 56 60 310 12 50 161 164 138 140 139 142 165 130 145 162 172 171 178 183 179 179 179 178 175 169 164 160 153 144 133 120 112 116 130 130 134 146 158 154 115 118 120 129 128 128 121 113
97 77 61 136 288 136 185 169 154 128 148 151 111 132 153 177 178 180 179 184 182 182 181 183 182 181 178 175 172 168 160 150 140 131 129 138 140 150 165 178 177 138 130 132 139 140 134 122 115
108 84 176 178 203 246 186 173 141 158 158 182 152 118 164 168 174 180 186 186 183 182 182 186 187 187 186 185 183 180 174 166 156 144 139 146 157 165 166 168 160 140 133 140 140 144 132 119 117
112 96 135 222 150 252 185 159 146 159 190 163 172 171 179 186 177 179 180 180 184 184 195 196 194 193 193 191 192 191 188 183 176 167 161 160 163 167 171 169 150 144 146 145 150 144 139 127 120
121 65 162 212 148 194 177 143 127 129 149 170 183 169 196 178 172 177 178 181 187 195 202 202 203 201 200 198 195 195 195 193 190 184 179 175 172 168 164 162 152 151 153 153 151 143 136 132 123
100 111 204 255 163 168 187 197 150 149 154 179 183 192 171 175 175 180 187 188 192 195 199 205 210 207 204 203 203 202 202 202 199 192 188 181 175 167 165 159 156 157 161 160 154 148 143 139 135
144 172 195 39 94 108 170 153 177 153 210 210 200 196 185 183 188 191 197 199 200 201 201 211 208 214 213 208 208 208 207 205 200 201 191 184 177 172 167 166 164 169 175 166 159 155 153 154 152
137 220 193 168 168 151 185 251 229 212 215 216 216 231 208 201 201 203 205 206 205 208 209 210 211 212 221 218 215 213 212 207 204 211 199 194 183 178 171 172 174 181 175 173 167 168 165 160 157
163 186 173 182 203 238 212 248 256 257 233 221 254 214 219 223 220 220 218 213 210 212 218 215 215 213 215 219 221 221 224 218 207 213 211 208 199 191 183 179 184 187 187 188 186 188 183 172 166
177 175 203 207 219 214 198 242 219 271 251 233 236 228 232 235 235 228 221 218 216 219 223 223 221 217 215 218 221 218 224 227 215 214 217 215 210 204 196 195 198 203 201 204 204 203 201 190 184
140 134 332 218 210 209 193 290 228 257 271 249 236 237 236 240 236 234 235 228 224 224 225 226 225 222 219 219 221 220 224 230 225 218 218 218 215 212 211 207 207 210 211 214 215 210 208 203 192
97 53 127 302 156 191 151 264 255 261 236 253 246 250 240 241 241 244 241 239 235 230 228 227 227 225 223 224 223 226 227 228 231 222 218 219 218 217 217 221 218 215 217 220 220 218 212 205 205
4 204 185 311 200 139 167 254 259 198 188 290 275 259 256 252 244 244 244 244 245 239 234 230 229 230 228 226 227 230 232 232 231 226 221 222 220 221 222 227 226 224 225 228 225 220 218 218 206
199 202 230 214 204 177 186 255 274 259 282 285 282 274 267 259 252 255 254 248 244 243 239 236 233 233 232 229 230 232 234 234 234 228 224 224 224 224 225 225 230 227 227 227 228 224 220 219 213
153 170 204 240 216 160 228 251 263 274 283 282 278 278 277 270 266 257 251 251 248 241 238 236 233 233 231 228 228 229 231 232 234 235 231 226 227 227 228 229 232 233 233 231 226 222 221 214 216
219 211 235 295 349 168 275 264 250 253 260 263 271 280 279 280 279 262 251 245 242 242 241 236 237 234 234 233 235 234 234 231 234 235 239 231 229 230 231 233 235 232 236 230 230 226 223 219 217
195 179 201 217 359 297 322 286 251 279 255 270 266 265 275 277 284 285 263 248 246 245 242 240 237 239 237 235 232 234 233 235 233 235 238 236 231 234 233 236 234 236 234 238 232 231 230 228 218
207 205 184 178 86 248 59 286 278 242 268 287 274 266 269 280 286 282 270 258 250 245 242 242 242 240 238 234 235 235 239 238 241 239 237 237 234 237 237 239 236 243 244 242 240 243 235 242 232
221 152 161 108 117 16 287 242 279 259 253 256 274 280 283 281 279 279 267 257 258 253 245 245 241 241 240 241 241 242 241 244 249 248 243 240 241 241 242 244 245 242 240 244 244 244 235 240 236
142 77 43 52 63 283 201 183 282 240 216 263 266 313 322 317 307 323 300 263 252 255 242 241 240 241 243 244 243 245 246 247 247 248 248 246 244 244 246 246 247 243 244 243 246 249 249 244 245
106 90 349 337 351 234 37 157 242 263 258 251 285 303 310 299 296 303 303 284 262 260 258 241 234 238 240 242 247 252 251 252 254 256 257 256 251 247 248 247 248 246 247 249 249 247 247 249 245
183 156 166 195 203 259 308 240 244 275 299 276 273 288 308 296 270 274 270 276 265 269 262 247 237 241 247 251 255 256 256 258 260 261 261 261 259 258 256 253 248 250 252 252 249 250 246 250 253
192 207 171 94 34 50 226 293 305 304 291 292 308 317 320 313 284 254 250 276 279 274 261 255 251 249 248 253 257 258 258 259 260 263 263 262 261 260 259 255 253 251 251 252 252 250 254 244 261
161 162 84 9 151 254 259 242 217 270 341 333 4 22 23 21 20 338 291 279 280 272 270 268 261 255 251 251 255 258 261 261 263 264 263 264 264 261 259 257 254 252 250 247 249 252 250 249 252
134 183 158 134 159 194 251 257 219 159 148 61 42 38 33 33 24 6 354 341 345 345 350 346 332 303 283 271 264 262 264 266 266 268 270 270 269 266 263 259 257 256 255 249 245 247 250 251 255
186 186 156 157 228 235 164 248 160 132 105 77 68 64 48 37 30 25 24 17 6 5 7 24 19 4 339 308 288 283 277 272 271 274 277 277 274 271 267 263 260 258 257 252 248 245 247 250 254